time_stamp(utc),avg(mph),gust(mph),direction(deg),12m_air_temp(f),sonic_u(cm/s),sonic_v(cm/s),sonic_w(cm/s),pressure,2m_air_temp(f),pyranometer(W/m^2)
"2017-04-05 00:00:21+00",11.5,13.5,,48.8,456,232,15,1003.37,49.1,0
"2017-04-05 00:05:21+00",11.4,13.4,,48.7,449,237,24,1003.48,49,0
"2017-04-05 00:10:21+00",10.4,11.4,,48.6,398,221,17,1003.53,48.9,0
"2017-04-05 00:15:21+00",13.4,14.4,,48.8,500,319,10,1003.57,49,0
"2017-04-05 00:20:21+00",12.7,13.7,,48.4,471,302,6,1003.65,48.7,0
"2017-04-05 00:25:21+00",11.2,13.2,,48.3,447,221,36,1003.67,48.5,0
"2017-04-05 00:30:21+00",10.3,11.3,,48.1,347,271,18,1003.74,48.3,0
"2017-04-05 00:35:21+00",13.3,15.3,,48.1,423,373,33,1003.77,48.3,0
"2017-04-05 00:40:21+00",13.9,15.9,,48,523,324,33,1003.79,48.2,0
"2017-04-05 00:45:21+00",10.4,12.4,,48.2,393,238,26,1003.93,48.3,0
"2017-04-05 00:50:21+00",11.5,13.5,,47.9,440,255,39,1004.01,48.2,0
"2017-04-05 00:55:21+00",13.0,14.0,,47.8,504,279,28,1004.1,48,0
"2017-04-05 01:00:21+00",12.4,14.4,,47.8,498,239,17,1004.16,48,0
"2017-04-05 01:05:21+00",12.0,13.0,,47.7,512,181,14,1004.04,48,0
"2017-04-05 01:10:21+00",8.9,9.9,,47.8,358,162,37,1004.25,48,0
"2017-04-05 01:15:21+00",11.5,13.5,,47.7,466,214,23,1004.33,48,0
"2017-04-05 01:20:21+00",8.3,10.3,,47.7,344,144,11,1004.55,47.9,0
"2017-04-05 01:25:21+00",9.3,10.3,,47.5,376,165,5,1004.49,47.8,0
"2017-04-05 01:30:21+00",9.9,9.9,,47.6,363,240,13,1004.75,47.8,0
"2017-04-05 01:35:21+00",10.4,11.4,,47.3,399,228,51,1004.75,47.6,0
"2017-04-05 01:40:21+00",10.5,11.5,,47.4,392,248,17,1004.87,47.5,0
"2017-04-05 01:45:21+00",10.9,11.9,,48,399,266,25,1005,47.9,0
"2017-04-05 01:50:21+00",9.5,10.5,,48.3,244,312,12,1005.14,48.3,0
"2017-04-05 01:55:21+00",12.8,13.8,,48.2,330,414,-3,1005.12,48.3,0
"2017-04-05 02:00:21+00",12.9,13.9,,48.2,374,373,-9,1005.12,48.3,0
"2017-04-05 02:05:21+00",12.9,14.9,,48.5,331,437,8,1005.3,48.5,0
"2017-04-05 02:10:21+00",13.5,14.5,,48.4,258,514,-88,1005.52,48.5,0
"2017-04-05 02:15:21+00",13.5,15.5,,48.1,227,518,-75,1005.38,48.2,0
"2017-04-05 02:20:21+00",16.3,17.3,,48.1,373,609,-65,1005.53,48.2,0
"2017-04-05 02:25:21+00",16.4,18.4,,48,428,530,-58,1005.36,48.1,0
"2017-04-05 02:30:21+00",10.1,12.1,,48.1,201,365,-58,1005.44,48.1,0
"2017-04-05 02:35:21+00",10.7,11.7,,47.9,270,317,-79,1005.5,47.9,0
"2017-04-05 02:40:21+00",8.2,10.2,,48,241,211,-46,1005.66,48.1,0
"2017-04-05 02:45:21+00",11.3,12.3,,47.7,265,372,-56,1005.62,47.8,0
"2017-04-05 02:50:21+00",10.7,11.7,,47.6,240,376,-61,1005.74,47.6,0
"2017-04-05 02:55:21+00",11.5,12.5,,47.8,261,387,-70,1005.81,47.8,0
"2017-04-05 03:00:21+00",12.8,13.8,,47.5,369,360,-79,1005.8,47.6,0
"2017-04-05 03:05:21+00",11.6,12.6,,47.7,374,306,-55,1005.84,47.7,0
"2017-04-05 03:10:21+00",11.5,13.5,,47.8,328,330,-52,1005.9,47.9,0
"2017-04-05 03:15:21+00",11.4,13.4,,47.7,355,319,-46,1006.05,47.8,0
"2017-04-05 03:20:21+00",11.8,12.8,,47.4,414,293,-55,1006.11,47.7,0
"2017-04-05 03:25:21+00",12.1,13.1,,47.5,361,341,-64,1006.13,47.6,0
"2017-04-05 03:30:21+00",11.8,12.8,,47.5,353,335,-52,1006.18,47.7,0
"2017-04-05 03:35:21+00",13.2,15.2,,47.3,469,333,-33,1006.23,47.6,0
"2017-04-05 03:40:21+00",11.4,12.4,,47.4,308,340,-78,1006.22,47.5,0
"2017-04-05 03:45:21+00",12.8,14.8,,47.4,374,375,-46,1006.22,47.5,0
"2017-04-05 03:50:21+00",13.0,14.0,,47.4,456,311,-70,1006.26,47.5,0
"2017-04-05 03:55:21+00",11.7,12.7,,47.3,368,315,-71,1006.32,47.5,0
"2017-04-05 04:00:21+00",11.8,13.8,,47.3,382,303,-73,1006.32,47.4,0
"2017-04-05 04:05:21+00",9.5,10.5,,47.2,391,58,-59,1006.52,47.4,0
"2017-04-05 04:10:21+00",8.9,9.9,,46.8,367,72,-41,1006.59,47.1,0
"2017-04-05 04:15:21+00",9.4,10.4,,46.5,346,169,-80,1006.57,46.9,0
"2017-04-05 04:20:21+00",10.8,11.8,,46.5,351,274,-73,1006.45,46.6,0
"2017-04-05 04:25:21+00",11.0,12.0,,46.4,374,269,-73,1006.33,46.6,0
"2017-04-05 04:30:21+00",11.5,12.5,,46.4,410,259,-60,1006.3,46.6,0
"2017-04-05 04:35:21+00",9.8,11.8,,46.4,384,143,-67,1006.63,46.6,0
"2017-04-05 04:40:21+00",11.3,13.3,,46.3,469,114,-39,1006.66,46.7,0
"2017-04-05 04:45:21+00",13.5,15.5,,46.4,575,170,-55,1006.53,46.7,0
"2017-04-05 04:50:21+00",13.2,15.2,,46.3,542,205,-75,1006.57,46.6,0
"2017-04-05 04:55:21+00",12.7,14.7,,45.9,538,189,-59,1006.63,46.4,0
"2017-04-05 05:00:21+00",11.2,13.2,,45.8,447,171,-63,1006.63,46.2,0
"2017-04-05 05:05:21+00",11.8,14.8,,45.6,474,189,-72,1006.61,45.9,0
"2017-04-05 05:10:21+00",13.9,14.9,,45.3,514,303,-66,1006.8,45.7,0
"2017-04-05 05:15:21+00",12.0,13.0,,45.4,413,287,-71,1006.85,45.7,0
"2017-04-05 05:20:21+00",10.8,12.8,,45.4,425,167,-55,1007.11,45.7,0
"2017-04-05 05:25:21+00",12.6,13.6,,45.3,526,189,-62,1007.06,45.7,0
"2017-04-05 05:30:21+00",11.4,13.4,,45.1,441,196,-59,1007.08,45.5,0
"2017-04-05 05:35:21+00",12.2,13.2,,44.9,457,247,-64,1007.1,45.4,0
"2017-04-05 05:40:21+00",11.9,13.9,,44.9,418,302,-56,1007.06,45.2,0
"2017-04-05 05:45:21+00",11.7,13.7,,44.7,450,216,-76,1007.09,45,0
"2017-04-05 05:50:21+00",11.5,13.5,,44.6,481,129,-48,1007.17,45.1,0
"2017-04-05 05:55:21+00",9.9,10.9,,44.5,401,100,-75,1007.13,44.9,0
"2017-04-05 06:00:21+00",8.9,10.9,,44.5,342,144,-44,1007.19,44.8,0
"2017-04-05 06:05:21+00",9.6,10.6,,44.2,384,51,-67,1007.38,44.7,0
"2017-04-05 06:10:21+00",9.2,11.2,,44.2,366,-8,-70,1007.3,44.7,0
"2017-04-05 06:15:21+00",8.3,9.3,,44.3,317,95,-60,1007.34,44.6,0
"2017-04-05 06:20:21+00",7.2,8.2,,44.2,245,143,-56,1007.17,44.4,0
"2017-04-05 06:25:21+00",7.6,8.6,,44.4,305,10,-34,1007.34,44.6,0
"2017-04-05 06:30:21+00",9.4,10.4,,43.9,355,-172,-66,1007.56,44.4,0
"2017-04-05 06:35:21+00",9.5,10.5,,43.7,485,59,-111,1007.41,44.3,0
"2017-04-05 06:40:21+00",7.2,8.2,,43.5,286,77,-49,1007.37,44,0
"2017-04-05 06:45:21+00",7.5,8.5,,43.7,302,89,-47,1007.56,44,0
"2017-04-05 06:50:21+00",8.0,9.0,,43.7,256,-180,-53,1007.73,44,0
"2017-04-05 06:55:21+00",7.4,8.4,,43.5,259,-132,-65,1007.6,43.9,0
"2017-04-05 07:00:21+00",6.1,7.1,,43.5,212,104,-38,1007.49,43.9,0
"2017-04-05 07:05:21+00",6.1,7.1,,43.4,197,122,-36,1007.55,43.8,0
"2017-04-05 07:10:21+00",6.9,7.9,,43.1,272,23,-53,1007.54,43.7,0
"2017-04-05 07:15:21+00",6.2,7.2,,42.9,236,43,-43,1007.72,43.4,0
"2017-04-05 07:20:21+00",6.1,7.1,,43,225,-60,-40,1007.77,43.3,0
"2017-04-05 07:25:21+00",5.5,6.5,,43,209,-50,-21,1007.74,43.3,0
"2017-04-05 07:30:21+00",5.3,6.3,,42.9,208,-38,-38,1007.77,43.2,0
"2017-04-05 07:35:21+00",5.5,6.5,,42.9,226,-15,-14,1007.93,43.2,0
"2017-04-05 07:40:21+00",7.1,8.1,,43,289,-33,-31,1007.93,43.4,0
"2017-04-05 07:45:21+00",6.2,7.2,,42.9,252,-13,-29,1007.99,43.3,0
"2017-04-05 07:50:21+00",7.5,8.5,,42.9,244,-190,-64,1008.06,43.2,0
"2017-04-05 07:55:21+00",5.9,6.9,,42.3,217,-27,-48,1008.08,43,0
"2017-04-05 08:00:21+00",6.4,7.4,,42.4,243,-26,-40,1008.13,42.9,0
"2017-04-05 08:05:21+00",5.9,6.9,,42.3,228,-44,-38,1008.11,42.8,0
"2017-04-05 08:10:21+00",5.6,6.6,,42.2,182,-98,-49,1008.34,42.7,0
"2017-04-05 08:15:21+00",3.2,4.2,,42.1,66,-95,-10,1008.12,42.5,0
"2017-04-05 08:20:21+00",5.4,6.4,,42.1,196,60,-36,1008.09,42.5,0
"2017-04-05 08:25:21+00",4.4,5.4,,41.9,130,-84,-27,1008.08,42.3,0
"2017-04-05 08:30:21+00",7.7,9.7,,42.3,196,-232,-57,1008.16,42.5,0
"2017-04-05 08:35:21+00",5.6,6.6,,41.9,130,-169,-48,1008.56,42.4,0
"2017-04-05 08:40:21+00",6.7,7.7,,42,155,-218,-50,1008.45,42.4,0
"2017-04-05 08:45:21+00",6.4,8.4,,42,244,15,-21,1008.41,42.3,0
"2017-04-05 08:50:21+00",2.6,3.6,,41.9,88,16,-1,1008.37,42.2,0
"2017-04-05 08:55:21+00",4.9,5.9,,41.9,127,146,-26,1008.48,42.3,0
"2017-04-05 09:00:21+00",5.1,6.1,,41.7,154,127,-41,1008.55,42.1,0
"2017-04-05 09:05:21+00",5.7,5.7,,41.8,180,132,-42,1008.59,42.1,0
"2017-04-05 09:10:21+00",5.0,6.0,,41.8,184,-2,-39,1008.63,42.1,0
"2017-04-05 09:15:21+00",6.4,7.4,,41.7,238,42,-39,1008.85,42.1,0
"2017-04-05 09:20:21+00",6.4,7.4,,41.6,244,37,-39,1008.85,42.1,0
"2017-04-05 09:25:21+00",5.5,6.5,,41.5,190,104,-34,1008.79,42,0
"2017-04-05 09:30:21+00",5.5,6.5,,41.6,200,70,-33,1008.97,41.9,0
"2017-04-05 09:35:21+00",6.8,7.8,,41.9,214,-129,-44,1009.01,42.1,0
"2017-04-05 09:40:21+00",5.6,6.6,,41.9,212,19,-20,1009.15,42.3,0
"2017-04-05 09:45:21+00",4.4,5.4,,41.6,149,18,-10,1009.17,42.1,0
"2017-04-05 09:50:21+00",4.9,5.9,,41.5,141,130,-28,1009.42,42,0
"2017-04-05 09:55:21+00",4.9,5.9,,41.6,168,86,-14,1009.6,41.9,0
"2017-04-05 10:00:21+00",5.2,6.2,,41.7,187,92,-22,1009.64,42,0
"2017-04-05 10:05:21+00",7.7,8.7,,41.9,280,146,-50,1009.77,42.1,0
"2017-04-05 10:10:21+00",6.1,7.1,,41.7,204,143,-35,1009.85,42.1,0
"2017-04-05 10:15:21+00",8.8,10.8,,41.6,354,114,-40,1009.93,42,0
"2017-04-05 10:20:21+00",7.1,9.1,,41.7,298,22,-34,1010,42.2,0
"2017-04-05 10:25:21+00",6.5,7.5,,41.7,270,59,56,1010.33,42.1,0
"2017-04-05 10:30:21+00",6.2,8.2,,41.8,257,79,28,1010.43,42,0
"2017-04-05 10:35:21+00",9.1,10.1,,41.4,350,193,23,1010.68,42,0
"2017-04-05 10:40:21+00",7.3,8.3,,41.5,273,165,23,1010.69,41.9,0
"2017-04-05 10:45:21+00",6.6,7.6,,41.7,242,152,21,1010.79,41.9,0
"2017-04-05 10:50:21+00",5.7,7.7,,41.6,247,-29,5,1011.11,42,0
"2017-04-05 10:55:21+00",5.1,6.1,,41.4,192,-94,3,1011.06,41.9,0
"2017-04-05 11:00:21+00",4.8,5.8,,41.2,200,37,14,1011.25,41.7,0
"2017-04-05 11:05:21+00",4.6,6.6,,41.2,180,69,19,1011.28,41.7,0
"2017-04-05 11:10:21+00",6.0,7.0,,41.1,255,-12,1,1011.41,41.6,0
"2017-04-05 11:15:21+00",5.1,6.1,,41.3,216,20,3,1011.45,41.7,0
"2017-04-05 11:20:21+00",4.5,5.5,,41.3,174,74,5,1011.5,41.9,0
"2017-04-05 11:25:21+00",3.2,4.2,,41.3,133,-8,9,1011.51,41.9,1.4
"2017-04-05 11:30:21+00",4.3,5.3,,41.2,177,-21,-15,1011.53,41.9,0
"2017-04-05 11:35:21+00",3.5,4.5,,41.3,140,-29,7,1011.47,41.9,14.4
"2017-04-05 11:40:21+00",4.5,5.5,,41.4,184,-67,15,1011.48,42,7.6
"2017-04-05 11:45:21+00",3.1,4.1,,41.2,118,-16,1,1011.5,42,10.6
"2017-04-05 11:50:21+00",2.2,3.2,,41.3,67,-45,-6,1011.77,41.9,16.3
"2017-04-05 11:55:21+00",2.5,3.5,,41.4,74,-53,20,1011.92,42.1,30.2
"2017-04-05 12:00:21+00",3.3,4.3,,41.3,95,-92,3,1012.04,41.8,18.9
"2017-04-05 12:05:21+00",1.9,2.9,,41.3,64,-33,-2,1012.05,42,34.4
"2017-04-05 12:10:21+00",3.6,4.6,,41.5,116,76,13,1012.12,42.2,31.1
"2017-04-05 12:15:21+00",3.7,4.7,,41.8,116,88,1,1012.18,42.5,54.2
"2017-04-05 12:20:21+00",1.9,2.9,,41.9,63,12,12,1012.4,42.7,38.5
"2017-04-05 12:25:21+00",4.7,5.7,,41.9,192,47,-4,1012.32,42.9,46.5
"2017-04-05 12:30:21+00",3.6,4.6,,42,115,68,31,1012.52,43,59.1
"2017-04-05 12:35:21+00",4.9,5.9,,42.1,168,116,1,1012.59,43.1,67.1
"2017-04-05 12:40:21+00",4.4,4.4,,42,99,147,-1,1012.75,43.3,74.4
"2017-04-05 12:45:21+00",2.1,4.1,,42.5,74,7,24,1012.76,43.4,73.2
"2017-04-05 12:50:21+00",3.2,4.2,,42.4,127,-17,24,1012.9,43.5,51.7
"2017-04-05 12:55:21+00",2.7,3.7,,42.2,84,-52,-3,1012.76,43.4,83.5
"2017-04-05 13:00:21+00",2.1,3.1,,42.7,56,-55,2,1012.68,43.4,96
"2017-04-05 13:05:21+00",1.9,2.9,,42.7,60,-38,-20,1012.83,43.5,104
"2017-04-05 13:10:21+00",2.6,3.6,,42.9,3,-93,31,1012.82,43.7,99.4
"2017-04-05 13:15:21+00",0.6,1.6,,43.4,21,4,-29,1012.95,43.8,142.2
"2017-04-05 13:20:21+00",2.3,3.3,,43.6,-50,73,-23,1013.06,44.5,151.4
"2017-04-05 13:25:21+00",1.5,1.5,,43.9,-25,45,-25,1013.02,45.4,169.3
"2017-04-05 13:30:21+00",2.2,2.2,,44.1,-85,-11,16,1013,46.1,139.9
"2017-04-05 13:35:21+00",2.0,2.0,,44,-80,2,-3,1012.9,46.3,125.1
"2017-04-05 13:40:21+00",2.0,3.0,,44.3,-65,16,0,1012.89,46.3,136.9
"2017-04-05 13:45:21+00",2.3,3.3,,44.5,-84,15,-4,1012.96,46.5,149.5
"2017-04-05 13:50:21+00",1.2,2.2,,44.8,-41,-5,-7,1013.02,46.6,199.8
"2017-04-05 13:55:21+00",0.9,1.9,,45.4,-13,-30,-8,1012.97,47.2,168.8
"2017-04-05 14:00:21+00",0.5,1.5,,46.3,-14,0,11,1012.84,48.1,328.4
"2017-04-05 14:05:21+00",2.1,3.1,,46.9,-1,-58,65,1012.83,48.7,381.5
"2017-04-05 14:10:21+00",1.8,2.8,,46.7,-12,-55,3,1012.9,49.1,165.6
"2017-04-05 14:15:21+00",2.0,3.0,,47,30,-66,0,1012.84,48.9,275.3
"2017-04-05 14:20:21+00",3.4,4.4,,45.9,64,-122,16,1012.78,48,237.8
"2017-04-05 14:25:21+00",3.8,4.8,,46.1,69,-142,-28,1012.98,48,401.4
"2017-04-05 14:30:21+00",4.1,5.1,,46.9,47,-157,-18,1012.97,48.5,283.3
"2017-04-05 14:35:21+00",2.9,3.9,,47.3,-45,-102,-28,1013.04,49,213.2
"2017-04-05 14:40:21+00",4.7,5.7,,46.8,19,-195,-23,1012.96,48.5,334.5
"2017-04-05 14:45:21+00",2.1,3.1,,47.5,-60,-48,-1,1012.96,49.7,389.7
"2017-04-05 14:50:21+00",1.0,1.0,,48.4,10,-1,5,1012.96,51,405.2
"2017-04-05 14:55:21+00",2.9,3.9,,49.4,72,-60,42,1012.89,52.4,397
"2017-04-05 15:00:21+00",2.4,2.4,,49.8,46,-76,15,1012.8,52.4,394.4
"2017-04-05 15:05:21+00",2.9,4.9,,50.4,34,-102,8,1012.8,53.2,405.9
"2017-04-05 15:10:21+00",3.8,3.8,,50.7,144,-70,-17,1012.9,53.5,409.3
"2017-04-05 15:15:21+00",4.1,5.1,,51.4,20,-155,29,1012.78,54.1,417.9
"2017-04-05 15:20:21+00",3.7,4.7,,52.1,127,-89,-3,1012.91,55.1,425.9
"2017-04-05 15:25:21+00",4.1,5.1,,52.2,48,-157,2,1012.91,55.3,423
"2017-04-05 15:30:21+00",4.4,5.4,,53.1,5,-177,-17,1013.01,55.5,431.2
"2017-04-05 15:35:21+00",14.6,16.6,,50.6,633,-107,32,1013.11,55.3,408.3
"2017-04-05 15:40:21+00",13.6,15.6,,48.6,608,1,9,1013.17,53.6,454.8
"2017-04-05 15:45:21+00",10.4,12.4,,48.5,445,-109,16,1013.19,52.5,466.5
"2017-04-05 15:50:21+00",12.6,13.6,,46.2,554,22,41,1013.22,51.4,480.8
"2017-04-05 15:55:21+00",12.9,14.9,,45.4,574,19,40,1013.04,50.5,483.1
"2017-04-05 16:00:21+00",13.1,14.1,,44.7,571,-87,11,1013.3,49.6,436.3
"2017-04-05 16:05:21+00",12.2,14.2,,44.3,543,-25,55,1013.28,48.7,470.1
"2017-04-05 16:10:21+00",12.4,13.4,,44.1,549,-68,2,1013.34,48.6,479.2
"2017-04-05 16:15:21+00",13.6,14.6,,44.1,608,64,45,1013.3,48.6,464.8
"2017-04-05 16:20:21+00",13.2,14.2,,43.8,594,-34,16,1013.37,47.9,508.9
"2017-04-05 16:25:21+00",13.2,14.2,,44.6,592,25,47,1013.14,48.8,519.3
"2017-04-05 16:30:21+00",12.8,13.8,,45.1,578,16,34,1013.26,49,523.5
"2017-04-05 16:35:21+00",11.6,13.6,,45.4,515,-25,41,1013.36,49.6,461.1
"2017-04-05 16:40:21+00",12.3,13.3,,45.1,538,-91,8,1013.23,49.7,533.2
"2017-04-05 16:45:21+00",11.9,12.9,,45,531,-10,26,1013.11,49.3,527.1
"2017-04-05 16:50:21+00",13.6,14.6,,44.4,582,-166,0,1013.22,48.8,531.4
"2017-04-05 16:55:21+00",13.6,15.6,,44.5,583,-178,18,1013.2,48.7,520.5
"2017-04-05 17:00:21+00",14.7,16.7,,44.7,654,-96,35,1013.02,48.8,526.4
"2017-04-05 17:05:21+00",15.1,17.1,,45,675,-40,24,1012.99,49.1,521
"2017-04-05 17:10:21+00",14.0,16.0,,44.6,614,-102,14,1012.94,48.5,529.4
"2017-04-05 17:15:21+00",14.6,15.6,,45.6,637,-128,45,1012.86,49.4,536.5
"2017-04-05 17:20:21+00",15.4,16.4,,44.8,670,-144,-2,1012.85,48.8,535.5
"2017-04-05 17:25:21+00",15.5,17.5,,45.3,690,-95,45,1012.8,49.1,516.9
"2017-04-05 17:30:21+00",15.5,16.5,,44.3,690,-95,17,1012.87,48.4,513.6
"2017-04-05 17:35:21+00",14.7,15.7,,44.3,643,-110,-6,1012.76,48.1,526.4
"2017-04-05 17:40:21+00",14.5,17.5,,44.7,613,-165,19,1012.92,48.9,507.7
"2017-04-05 17:45:21+00",13.4,14.4,,44.4,536,-257,17,1012.74,48.8,520.7
"2017-04-05 17:50:21+00",12.6,14.6,,44.7,538,-166,59,1012.82,48.7,518.1
"2017-04-05 17:55:21+00",13.3,15.3,,44.3,551,-213,14,1012.67,49.1,476.4
"2017-04-05 18:00:21+00",13.0,14.0,,44.4,554,-149,-7,1012.69,49.3,502.4
"2017-04-05 18:05:21+00",13.1,14.1,,44.6,576,-126,1,1012.69,49.4,450.6
"2017-04-05 18:10:21+00",11.2,13.2,,44.9,481,-114,36,1012.9,49.3,500.1
"2017-04-05 18:15:21+00",12.7,13.7,,44.5,522,-198,-17,1013.02,49.2,492.1
"2017-04-05 18:20:21+00",11.4,13.4,,44.5,452,-229,-18,1013.13,49.5,480
"2017-04-05 18:25:21+00",11.5,12.5,,44.6,475,-175,0,1013.03,49.4,479.7
"2017-04-05 18:30:21+00",11.9,13.9,,44.5,453,-254,2,1012.99,49.4,482.7
"2017-04-05 18:35:21+00",10.8,12.8,,44.7,421,-207,-8,1012.87,49.4,466
"2017-04-05 18:40:21+00",9.5,11.5,,45,391,-153,54,1012.69,49.8,450.6
"2017-04-05 18:45:21+00",12.1,13.1,,45.1,458,-275,-4,1012.69,50.1,443.3
"2017-04-05 18:50:21+00",12.6,14.6,,44.9,486,-269,-8,1012.67,50,453.8
"2017-04-05 18:55:21+00",10.9,12.9,,45,446,-178,17,1012.72,50.3,436.5
"2017-04-05 19:00:21+00",11.2,12.2,,45.6,465,-163,9,1012.56,50.3,366.8
"2017-04-05 19:05:21+00",12.1,13.1,,45.5,457,-272,-7,1012.76,50.7,399.3
"2017-04-05 19:10:21+00",9.6,10.6,,45.1,380,-180,-15,1012.99,50.4,393.3
"2017-04-05 19:15:21+00",11.4,12.4,,45.3,493,-93,11,1012.96,50.2,378
"2017-04-05 19:20:21+00",11.0,13.0,,45.8,471,-103,43,1012.76,49.9,383.8
"2017-04-05 19:25:21+00",11.9,13.9,,46,442,-292,30,1012.77,50.3,338.7
"2017-04-05 19:30:21+00",11.9,12.9,,45.5,409,-313,-17,1012.85,50.2,354.1
"2017-04-05 19:35:21+00",12.3,13.3,,45.5,456,-288,-16,1012.9,49.9,353.3
"2017-04-05 19:40:21+00",10.6,12.6,,45.7,410,-211,13,1012.81,50,320.4
"2017-04-05 19:45:21+00",12.4,13.4,,45.9,508,-205,-7,1012.9,50.4,333.1
"2017-04-05 19:50:21+00",11.6,12.6,,45.9,505,-96,14,1012.84,50.2,340.2
"2017-04-05 19:55:21+00",10.5,11.5,,45.6,458,-101,9,1012.76,49.7,329.4
"2017-04-05 20:00:21+00",11.4,12.4,,45.7,473,-167,-18,1012.63,49.9,334.1
"2017-04-05 20:05:21+00",12.5,13.5,,46.3,525,-154,7,1012.77,50.4,268.6
"2017-04-05 20:10:21+00",12.4,14.4,,45.5,493,-240,-5,1012.78,49.4,254
"2017-04-05 20:15:21+00",10.7,11.7,,45.2,431,-209,10,1012.88,49.1,200.8
"2017-04-05 20:20:21+00",11.6,12.6,,45.6,431,-268,-6,1012.77,49.4,303.6
"2017-04-05 20:25:21+00",11.5,13.5,,45.8,475,-193,15,1012.7,49.2,173.9
"2017-04-05 20:30:21+00",11.5,12.5,,45.4,463,-213,-9,1012.9,49.2,263.6
"2017-04-05 20:35:21+00",12.5,13.5,,45.7,552,-79,18,1012.82,49.1,205.5
"2017-04-05 20:40:21+00",12.4,13.4,,45.7,548,-40,16,1012.93,48.6,186.4
"2017-04-05 20:45:21+00",9.8,10.8,,45.8,419,-93,50,1013.08,48.7,149.1
"2017-04-05 20:50:21+00",10.4,12.4,,46.1,442,-132,20,1013.05,48.9,234.4
"2017-04-05 20:55:21+00",10.5,11.5,,45.9,413,-206,15,1013.23,48.9,176.3
"2017-04-05 21:00:21+00",12.0,13.0,,45.6,463,-249,-10,1013.23,49,175.4
"2017-04-05 21:05:21+00",11.2,13.2,,45.6,467,-172,-9,1013.23,48.8,163.7
"2017-04-05 21:10:21+00",11.3,12.3,,45.7,497,-87,2,1013.14,48.6,156
"2017-04-05 21:15:21+00",11.6,12.6,,45.9,472,-195,-1,1013.17,48.6,164.8
"2017-04-05 21:20:21+00",11.6,12.6,,45.9,478,-183,24,1013.13,48.4,128.3
"2017-04-05 21:25:21+00",12.8,13.8,,45.4,507,-249,-6,1013.34,48.2,86.6
"2017-04-05 21:30:21+00",12.0,13.0,,45.6,491,-201,10,1013.39,48,81.3
"2017-04-05 21:35:21+00",11.6,12.6,,45.5,498,-142,24,1013.44,47.6,61.7
"2017-04-05 21:40:21+00",12.3,13.3,,45.1,519,-142,5,1013.44,47,62
"2017-04-05 21:45:21+00",12.3,13.3,,45.2,485,-255,2,1013.56,47.1,85.7
"2017-04-05 21:50:21+00",11.2,12.2,,45.3,451,-213,41,1013.74,47.3,65.1
"2017-04-05 21:55:21+00",11.1,12.1,,45.2,411,-259,-4,1013.76,47.2,39.8
"2017-04-05 22:00:21+00",10.6,12.6,,45,415,-199,2,1013.85,47,32.8
"2017-04-05 22:05:21+00",10.7,12.7,,45.2,462,-134,14,1013.85,46.9,29.7
"2017-04-05 22:10:21+00",11.3,12.3,,45.2,498,-64,23,1013.87,46.7,23.2
"2017-04-05 22:15:21+00",9.5,11.5,,45.8,401,-126,22,1013.93,46.8,16.7
"2017-04-05 22:20:21+00",8.8,9.8,,45.9,352,-160,11,1013.97,46.9,9
"2017-04-05 22:25:21+00",8.5,9.5,,45.9,286,-232,0,1014.22,47,2.6
"2017-04-05 22:30:21+00",9.5,10.5,,45.9,345,-225,5,1014.19,47,1.4
"2017-04-05 22:35:21+00",9.5,10.5,,46,262,-320,-13,1014.13,47,0
"2017-04-05 22:40:21+00",9.4,10.4,,46.1,183,-357,7,1014.22,46.8,0
"2017-04-05 22:45:21+00",8.1,9.1,,45.9,116,-330,6,1014.27,46.4,0
"2017-04-05 22:50:21+00",8.3,10.3,,45.8,154,-317,-5,1014.32,46.4,0
"2017-04-05 22:55:21+00",9.0,10.0,,45.8,223,-312,-14,1014.03,46.3,0
"2017-04-05 23:00:21+00",7.4,8.4,,45.9,206,-241,34,1014,46.3,0
"2017-04-05 23:05:21+00",8.1,10.1,,45.9,285,-202,29,1013.85,46.3,0
"2017-04-05 23:10:21+00",8.6,9.6,,45.8,315,-205,-4,1013.87,46.3,0
"2017-04-05 23:15:21+00",8.9,9.9,,45.8,331,-201,7,1013.76,46.3,0
"2017-04-05 23:20:21+00",9.5,10.5,,45.8,353,-227,0,1013.86,46.2,0
"2017-04-05 23:25:21+00",11.5,13.5,,45.8,417,-281,-2,1013.67,46.1,0
"2017-04-05 23:30:21+00",10.3,12.3,,45.9,420,-180,19,1013.59,46.2,0
"2017-04-05 23:35:21+00",12.6,14.6,,46,503,-254,8,1013.49,46.2,0
"2017-04-05 23:40:21+00",13.1,14.1,,45.9,488,-321,-19,1013.49,46.2,0
"2017-04-05 23:45:21+00",11.5,13.5,,45.7,420,-271,-21,1013.48,46.1,0
"2017-04-05 23:50:21+00",13.1,16.1,,45.8,536,-216,24,1013.39,46.1,0
"2017-04-05 23:55:21+00",13.4,15.4,,45.7,566,-205,12,1013.24,46,0
